Location: Hermaringen
(48.5952°N, 10.2585°E)
Time: 18:25:39
(UTC+00:00)

Injun/Solrad 3 - Pass Details

Date: 23 February 2026
Orbit: 872 x 984 km, 66.8° (Epoch: 6 March)

Event Time Altitude Azimuth Distance (km) Brightness Sun altitude
Rises 17:23:45 0° 325° (NW) 3,568 11.4 -5.8°
Reaches altitude 10° 17:26:17 10° 328° (NNW) 2,639 10.6 -6.2°
Maximum altitude 17:32:25 68° 51° (NE) 1,021 8.0 -7.2°
Drops below altitude 10° 17:38:42 10° 135° (SE) 2,699 10.0 -8.3°
Sets 17:41:18 0° 138° (SE) 3,655 10.6 -8.7°
